Provincetown, MA

9:28 AM EST on December 03, 2016 (GMT -0500)
Provincetown Municipal

Weather History for KPVC - December, 2013

Change the Weather History Date:

Monday, December 23, 2013

  Actual Average Record
Temperature  
Mean Temperature 42 °F -  
Max Temperature 44 °F 39 °F 56 °F (1957)
Min Temperature 39 °F 29 °F 17 °F (1955)
Degree Days  
Heating Degree Days 24    
Moisture  
Dew Point 41 °F    
Average Humidity 95    
Maximum Humidity 100    
Minimum Humidity 87    
Precipitation  
Precipitation 0.17 in - - ()
Sea Level Pressure  
Sea Level Pressure 30.03 in    
Wind  
Wind Speed 6 mph (North)    
Max Wind Speed 15 mph    
Max Gust Speed 21 mph    
Visibility 6 miles    
Events      
Averages and records for this station are not official NWS values.
T = Trace of Precipitation, MM = Missing Value Source: NWS Daily Summary

Daily Weather History Graph

Daily Weather History Graph

Search for Another Location

Airport or City:

Trip Planner

Search our weather history database for the weather conditions in past years. The results will help you decide how hot, cold, wet, or windy it might be!

Date:

Astronomy

Dec. 23, 2013 Rise Set
Actual Time 7:06 AM EST 4:13 PM EST
Civil Twilight 6:35 AM EST 4:45 PM EST
Nautical Twilight 5:59 AM EST 5:20 PM EST
Astronomical Twilight 5:25 AM EST 5:54 PM EST
Moon 10:26 PM EST (12/23) 10:25 AM EST (12/23)
Length of Visible Light 10h 10m
Length of Day
9h 06m
Waning Gibbous, 68% of the Moon is Illuminated
Dec 23
Waning Gibbous
Dec 25
Last Quarter
Jan 1
New
Jan 7
First Quarter
Jan 15
Full

Hourly Weather History & Observations

Time (EST) Temp. Windchill Dew Point Humidity Pressure Visibility Wind Dir Wind Speed Gust Speed Precip Events Conditions
12:15 AM 42.8 °F 41.1 °F 41.0 °F 93% 30.00 in 6.0 mi NE 3.5 mph - N/A   Clear
12:35 AM 42.8 °F 41.1 °F 41.0 °F 93% 30.03 in 8.0 mi North 3.5 mph - 0.01 in   Partly Cloudy
12:55 AM 42.8 °F 40.1 °F 42.8 °F 100% 30.01 in 10.0 mi ENE 4.6 mph - 0.01 in   Mostly Cloudy
1:15 AM 42.8 °F 39.3 °F 42.8 °F 100% 30.01 in 10.0 mi NNE 5.8 mph - 0.01 in   Overcast
1:35 AM 42.8 °F 39.3 °F 41.0 °F 93% 30.00 in 10.0 mi NE 5.8 mph - 0.01 in   Overcast
1:55 AM 42.8 °F 39.3 °F 41.0 °F 93% 30.01 in 10.0 mi NNE 5.8 mph - 0.01 in   Scattered Clouds
2:15 AM 42.8 °F 39.3 °F 41.0 °F 93% 30.03 in 9.0 mi NNE 5.8 mph - 0.01 in   Partly Cloudy
2:35 AM 42.8 °F 38.6 °F 42.8 °F 100% 30.04 in 9.0 mi North 6.9 mph - 0.01 in   Mostly Cloudy
2:55 AM 42.8 °F 40.1 °F 41.0 °F 93% 30.02 in 10.0 mi ENE 4.6 mph - 0.02 in   Mostly Cloudy
3:15 AM 42.8 °F 40.1 °F 41.0 °F 93% 30.03 in 7.0 mi NNE 4.6 mph - N/A   Mostly Cloudy
3:35 AM 42.8 °F 39.3 °F 42.8 °F 100% 30.03 in 5.0 mi North 5.8 mph - N/A   Overcast
3:55 AM 42.8 °F 39.3 °F 42.8 °F 100% 30.03 in 7.0 mi North 5.8 mph - N/A   Overcast
4:15 AM 42.8 °F 41.1 °F 41.0 °F 93% 30.01 in 1.0 mi NE 3.5 mph - N/A   Overcast
4:35 AM 42.8 °F 39.3 °F 42.8 °F 100% 30.04 in 0.5 mi NNW 5.8 mph - 0.01 in   Overcast
4:55 AM 42.8 °F 38.0 °F 41.0 °F 93% 30.05 in 0.8 mi North 8.1 mph - 0.01 in   Overcast
5:15 AM 42.8 °F 38.6 °F 42.8 °F 100% 30.04 in 1.0 mi North 6.9 mph - 0.02 in   Overcast
5:35 AM 42.8 °F 38.6 °F 41.0 °F 93% 30.03 in 0.5 mi North 6.9 mph - 0.02 in   Overcast
5:55 AM 42.8 °F 37.5 °F 41.0 °F 93% 30.04 in 0.5 mi North 9.2 mph - 0.02 in   Overcast
6:15 AM 42.8 °F 37.0 °F 41.0 °F 93% 30.05 in 0.5 mi North 10.4 mph - N/A   Overcast
6:35 AM 42.8 °F 37.5 °F 41.0 °F 93% 30.04 in 0.5 mi NNE 9.2 mph - 0.01 in   Overcast
6:55 AM 42.8 °F 38.6 °F 41.0 °F 93% 30.05 in 0.5 mi NNE 6.9 mph - 0.02 in   Overcast
7:15 AM 42.8 °F 39.3 °F 41.0 °F 93% 30.05 in 0.2 mi NNE 5.8 mph - N/A   Overcast
7:35 AM 42.8 °F 38.6 °F 42.8 °F 100% 30.05 in 0.2 mi NNE 6.9 mph - N/A   Overcast
7:55 AM 42.8 °F 39.3 °F 41.0 °F 93% 30.04 in 0.2 mi NNE 5.8 mph - 0.02 in   Overcast
8:15 AM 42.8 °F 41.1 °F 42.8 °F 100% 30.06 in 0.2 mi NE 3.5 mph - N/A   Overcast
8:35 AM 42.8 °F 41.1 °F 42.8 °F 100% 30.06 in 0.2 mi ENE 3.5 mph - N/A   Overcast
8:55 AM 42.8 °F - 41.0 °F 93% 30.06 in 0.2 mi Calm Calm - N/A   Overcast
9:15 AM 42.8 °F - 42.8 °F 100% 30.07 in 0.2 mi Calm Calm - 0.01 in   Overcast
9:35 AM 42.8 °F 38.6 °F 42.8 °F 100% 30.07 in 0.2 mi NNW 6.9 mph - 0.02 in   Overcast
9:55 AM 42.8 °F 38.6 °F 42.8 °F 100% 30.07 in 0.2 mi NNW 6.9 mph - 0.02 in   Overcast
10:15 AM 42.8 °F 38.0 °F 42.8 °F 100% 30.05 in 0.2 mi North 8.1 mph - N/A   Overcast
10:35 AM 42.8 °F 39.3 °F 41.0 °F 93% 30.04 in 0.2 mi NNE 5.8 mph - N/A   Overcast
10:55 AM 42.8 °F 40.1 °F 41.0 °F 93% 30.01 in 0.2 mi NE 4.6 mph - 0.01 in   Overcast
11:15 AM 42.8 °F - 42.8 °F 100% 30.03 in 1.2 mi Calm Calm - N/A   Overcast
11:35 AM 42.8 °F - 42.8 °F 100% 30.01 in 1.5 mi Calm Calm - 0.01 in   Overcast
11:55 AM 44.6 °F 42.2 °F 42.8 °F 93% 29.98 in 4.0 mi East 4.6 mph - 0.01 in   Overcast
12:15 PM 42.8 °F 37.5 °F 42.8 °F 100% 29.99 in 1.2 mi North 9.2 mph - N/A   Overcast
12:35 PM 42.8 °F 38.0 °F 42.8 °F 100% 29.99 in 3.0 mi North 8.1 mph - N/A   Overcast
12:55 PM 42.8 °F 39.3 °F 42.8 °F 100% 29.97 in 5.0 mi North 5.8 mph - N/A   Overcast
1:15 PM 42.8 °F 39.3 °F 42.8 °F 100% 29.96 in 7.0 mi NE 5.8 mph - N/A   Overcast
1:35 PM 42.8 °F 38.0 °F 41.0 °F 93% 29.95 in 10.0 mi NNE 8.1 mph - N/A   Overcast
1:55 PM 42.8 °F 37.0 °F 39.2 °F 87% 29.97 in 10.0 mi North 10.4 mph - N/A   Overcast
2:15 PM 41.0 °F 35.8 °F 39.2 °F 93% 29.97 in 10.0 mi NNE 8.1 mph - N/A   Overcast
2:35 PM 39.2 °F 32.0 °F 39.2 °F 100% 29.98 in 10.0 mi North 11.5 mph - N/A   Overcast
2:55 PM 39.2 °F 31.2 °F 37.4 °F 93% 29.98 in 10.0 mi North 13.8 mph 20.7 mph N/A   Overcast
3:15 PM 39.2 °F 31.6 °F 37.4 °F 93% 30.01 in 10.0 mi North 12.7 mph 18.4 mph N/A   Overcast
3:35 PM 39.2 °F 33.0 °F 37.4 °F 93% 30.01 in 10.0 mi NNE 9.2 mph - N/A   Overcast
3:55 PM 39.2 °F 34.2 °F 37.4 °F 93% 30.01 in 10.0 mi North 6.9 mph - N/A   Overcast
4:15 PM 39.2 °F 33.0 °F 39.2 °F 100% 30.01 in 9.0 mi North 9.2 mph - N/A   Overcast
4:35 PM 41.0 °F 35.8 °F 39.2 °F 93% 30.01 in 7.0 mi North 8.1 mph - N/A   Overcast
4:55 PM 39.2 °F 35.0 °F 39.2 °F 100% 30.02 in 5.0 mi North 5.8 mph - N/A   Overcast
5:15 PM 39.2 °F 33.6 °F 39.2 °F 100% 29.97 in 7.0 mi East 8.1 mph - N/A   Overcast
5:35 PM 41.0 °F 37.1 °F 39.2 °F 93% 30.02 in 10.0 mi North 5.8 mph - N/A   Overcast
5:55 PM 41.0 °F 36.4 °F 39.2 °F 93% 30.02 in 10.0 mi North 6.9 mph - N/A   Overcast
6:15 PM 41.0 °F 38.0 °F 39.2 °F 93% 30.04 in 7.0 mi North 4.6 mph - N/A   Overcast
6:35 PM 41.0 °F - 39.2 °F 93% 30.03 in 5.0 mi Calm Calm - N/A   Overcast
6:55 PM 41.0 °F - 37.4 °F 87% 30.02 in 10.0 mi Calm Calm - 0.01 in   Mostly Cloudy
7:15 PM 41.0 °F - 39.2 °F 93% 30.04 in 10.0 mi Calm Calm - N/A   Mostly Cloudy
7:35 PM 41.0 °F - 39.2 °F 93% 30.03 in 7.0 mi Calm Calm - N/A   Overcast
7:55 PM 41.0 °F - 39.2 °F 93% 30.01 in 10.0 mi Calm Calm - N/A   Overcast
8:15 PM 41.0 °F - 41.0 °F 100% 30.03 in 10.0 mi Calm Calm - N/A   Overcast
8:35 PM 41.0 °F 35.8 °F 39.2 °F 93% 30.03 in 10.0 mi NW 8.1 mph - N/A   Overcast
8:55 PM 41.0 °F 36.4 °F 39.2 °F 93% 30.05 in 10.0 mi NW 6.9 mph - N/A   Overcast
9:15 PM 41.0 °F 35.8 °F 39.2 °F 93% 30.04 in 10.0 mi NNW 8.1 mph - N/A   Overcast
9:35 PM 41.0 °F 34.3 °F 39.2 °F 93% 30.06 in 10.0 mi NW 11.5 mph - 0.01 in   Overcast
9:55 PM 39.2 °F 31.6 °F 39.2 °F 100% 30.05 in 10.0 mi NNW 12.7 mph - 0.01 in   Overcast
10:15 PM 39.2 °F 31.6 °F 37.4 °F 93% 30.06 in 9.0 mi NNW 12.7 mph 19.6 mph N/A   Overcast
10:35 PM 39.2 °F 35.0 °F 37.4 °F 93% 30.06 in 10.0 mi NNW 5.8 mph - N/A   Overcast
10:55 PM 39.2 °F 32.5 °F 37.4 °F 93% 30.06 in 10.0 mi NW 10.4 mph - N/A   Overcast
11:15 PM 41.0 °F 35.2 °F 39.2 °F 93% 30.06 in 10.0 mi NNW 9.2 mph - N/A   Overcast
11:35 PM 41.0 °F 33.1 °F 39.2 °F 93% 30.07 in 10.0 mi NNW 15.0 mph 19.6 mph N/A   Overcast
11:55 PM 41.0 °F 33.5 °F 37.4 °F 87% 30.05 in 10.0 mi NNW 13.8 mph 17.3 mph N/A   Overcast